sat.trackr.live / text

‹ back to catalog

YAOGAN-15

NORAD 38354 · 2012-029A

PAYLOAD ACTIVE UNKNOWN

§ Identity

Operator
Country
PRC
Launch date
2012-05-29
Launch site
TAISC
Launch vehicle
Mass (kg)
RCS (m²)
3.06

External: N2YO · Heavens-Above · Gunter

§ Orbital elements

Epoch: 2026-09-20T04:24:59.837760Z

Period
109.22 min
Inclination
100.7254°
Eccentricity
0.0025888
Mean motion
13.18386428 rev/d
Perigee alt
1,171.3 km
Apogee alt
1,210.5 km
Semi-major
7,569.0 km
B*
-3.6415e-4
RAAN
109.6684°
Arg perigee
76.5648°
Mean anomaly
283.8348°
Rev number
68,796

§ Raw data

YAOGAN-151 38354U 12029A   26263.18402590 -.00000190  00000+0 -36415-3 0  99982 38354 100.7254 109.6684 0025888  76.5648 283.8348 13.18386428687961

JSON: /api/v1/satellites/38354 · /tle

For live sub-satellite position, see the globe view (requires WebGL).

§ Visibility from observer

Set your observer location to see the next 7 days of passes ≥ 10°. The values pass through the URL so the page stays shareable.

No JS? Fill the form by hand. The geolocation button needs JavaScript.